Location: Unspecified
(48.8656°N, 0.0000°E)
Time: 01:09:48
(UTC+00:00)

Vanguard 1 Rocket - Pass Details

Date: 21 June 2019
Orbit: 650 x 4226 km, 34.3° (Epoch: 13 October)

Event Time Altitude Azimuth Distance (km) Brightness Sun altitude
Rises 16:13:58 0° 217° (SW) 7,892 12.7 35.0°
Reaches altitude 10° 16:21:12 10° 208° (SSW) 6,344 12.2 33.8°
Maximum altitude 16:34:36 26° 161° (SSE) 3,822 10.6 31.6°
Drops below altitude 10° 16:43:05 10° 110° (ESE) 3,935 10.2 30.2°
Sets 16:46:14 0° 98° (E) 4,507 10.4 29.7°
